Heber, UT

5:33 PM MDT on June 26, 2017 (GMT -0600)
Heber

Weather History for K36U - January, 2014

Change the Weather History Date:

Friday, January 24, 2014

  Actual Average (KPVU) Record (KPVU)
Temperature  
Mean Temperature 15 °F -  
Max Temperature 32 °F 36 °F 51 °F (2001)
Min Temperature -2 °F 22 °F -2 °F (1985)
Degree Days  
Heating Degree Days 50    
Moisture  
Dew Point 4 °F    
Average Humidity 70    
Maximum Humidity 85    
Minimum Humidity 38    
Precipitation  
Precipitation 0.00 in - - ()
Sea Level Pressure  
Sea Level Pressure 30.52 in    
Wind  
Wind Speed 1 mph (ESE)    
Max Wind Speed 4 mph    
Max Gust Speed -    
Visibility 10 miles    
Events Thunderstorm    
Averages and records for this station are not official NWS values.
T = Trace of Precipitation, MM = Missing Value Source: NWS Daily Summary

Daily Weather History Graph

Daily Weather History Graph

Search for Another Location

Airport or City:

Trip Planner

Search our weather history database for the weather conditions in past years. The results will help you decide how hot, cold, wet, or windy it might be!

Date:

Astronomy

Jan. 24, 2014 Rise Set
Actual Time 7:41 AM MST 5:34 PM MST
Civil Twilight 7:12 AM MST 6:03 PM MST
Nautical Twilight 6:39 AM MST 6:36 PM MST
Astronomical Twilight 6:07 AM MST 7:09 PM MST
Moon 1:12 AM MST (1/24) 11:55 AM MST (1/24)
Length of Visible Light 10h 51m
Length of Day
9h 52m
Last Quarter, 44% of the Moon is Illuminated
Jan 24
Last Quarter
Jan 30
New
Feb 6
First Quarter
Feb 14
Full
Feb 22
Last Quarter

Hourly Weather History & Observations

Time (MST) Temp. Windchill Dew Point Humidity Pressure Visibility Wind Dir Wind Speed Gust Speed Precip Events Conditions
12:15 AM 8.6 °F 2.0 °F 1.4 °F 73% 30.53 in 10.0 mi ESE 3.5 mph - N/A   Clear
12:35 AM 5.0 °F - 1.4 °F 85% 30.54 in 10.0 mi Calm Calm - N/A   Clear
12:55 AM 5.0 °F -2.1 °F 1.4 °F 85% 30.53 in 10.0 mi SE 3.5 mph - N/A   Clear
1:15 AM 5.0 °F - 1.4 °F 85% 30.54 in 10.0 mi Calm Calm - N/A   Clear
1:35 AM 3.2 °F - -0.4 °F 85% 30.54 in 10.0 mi Calm Calm - N/A   Clear
1:55 AM 5.0 °F - 1.4 °F 85% 30.54 in 10.0 mi Calm Calm - N/A   Clear
2:15 AM 3.2 °F -4.2 °F -0.4 °F 85% 30.56 in 10.0 mi ESE 3.5 mph - N/A   Clear
2:35 AM 3.2 °F - -0.4 °F 85% 30.56 in 10.0 mi Calm Calm - N/A   Clear
2:55 AM 3.2 °F - -0.4 °F 85% 30.57 in 10.0 mi Calm Calm - N/A   Clear
3:15 AM 5.0 °F - -0.4 °F 78% 30.56 in 10.0 mi Calm Calm - N/A   Clear
3:35 AM 1.4 °F - -4.0 °F 78% 30.57 in 10.0 mi Calm Calm - N/A   Clear
3:55 AM 3.2 °F - -0.4 °F 85% 30.57 in 10.0 mi Calm Calm - N/A   Clear
4:15 AM -0.4 °F - -5.8 °F 78% 30.57 in 10.0 mi Calm Calm - N/A   Clear
4:35 AM 1.4 °F - -2.2 °F 85% 30.56 in 10.0 mi Calm Calm - N/A   Clear
4:55 AM -0.4 °F -8.3 °F -4.0 °F 85% 30.57 in 10.0 mi ESE 3.5 mph - N/A   Clear
5:15 AM 1.4 °F - -4.0 °F 78% 30.57 in 10.0 mi Calm Calm - N/A   Clear
5:35 AM -0.4 °F - -4.0 °F 85% 30.56 in 10.0 mi Calm Calm - N/A   Clear
5:55 AM -0.4 °F - -4.0 °F 85% 30.57 in 10.0 mi Calm Calm - N/A   Clear
6:15 AM -0.4 °F - -5.8 °F 78% 30.57 in 10.0 mi Calm Calm - N/A   Clear
6:35 AM -0.4 °F - -4.0 °F 85% 30.57 in 10.0 mi Calm Calm - N/A   Clear
6:55 AM -0.4 °F - -4.0 °F 85% 30.57 in 10.0 mi Calm Calm - N/A   Clear
7:15 AM -0.4 °F - -4.0 °F 85% 30.57 in 10.0 mi Calm Calm - N/A   Clear
7:35 AM -0.4 °F - -4.0 °F 85% 30.58 in 10.0 mi Calm Calm - N/A   Clear
7:55 AM -0.4 °F - -4.0 °F 85% 30.58 in 10.0 mi Calm Calm - N/A   Clear
8:15 AM -2.2 °F - -5.8 °F 85% 30.58 in 10.0 mi Calm Calm - N/A   Clear
8:35 AM 3.2 °F - -0.4 °F 85% 30.59 in 10.0 mi Calm Calm - N/A   Clear
8:55 AM 6.8 °F - 1.4 °F 79% 30.59 in 10.0 mi Calm Calm - N/A   Clear
9:15 AM 8.6 °F - 3.2 °F 79% 30.59 in 10.0 mi Calm Calm - N/A   Clear
9:35 AM 10.4 °F - 5.0 °F 79% 30.60 in 10.0 mi Calm Calm - N/A   Clear
9:55 AM 12.2 °F - 5.0 °F 73% 30.59 in 10.0 mi Calm Calm - N/A   Clear
10:15 AM 12.2 °F - 5.0 °F 73% 30.59 in 10.0 mi Calm Calm - N/A   Clear
10:35 AM 15.8 °F - 5.0 °F 62% 30.59 in 10.0 mi Calm Calm - N/A   Clear
10:55 AM 17.6 °F - 6.8 °F 63% 30.58 in 10.0 mi Calm Calm - N/A   Clear
11:15 AM 17.6 °F - 8.6 °F 68% 30.58 in 10.0 mi Calm Calm - N/A   Clear
11:35 AM 21.2 °F - 8.6 °F 58% 30.56 in 10.0 mi Calm Calm - N/A   Clear
11:55 AM 23.0 °F - 6.8 °F 50% 30.56 in 10.0 mi Calm Calm - N/A   Clear
12:15 PM 26.6 °F - 8.6 °F 47% 30.55 in 10.0 mi Calm Calm - N/A   Clear
12:35 PM 28.4 °F - 8.6 °F 43% 30.53 in 10.0 mi Calm Calm - N/A   Clear
12:55 PM 30.2 °F - 10.4 °F 44% 30.52 in 10.0 mi Calm Calm - N/A   Clear
1:15 PM 28.4 °F - 10.4 °F 47% 30.51 in 10.0 mi Calm Calm - N/A   Clear
1:35 PM 30.2 °F - 12.2 °F 47% 30.49 in 10.0 mi Calm Calm - N/A   Clear
1:55 PM 32.0 °F - 10.4 °F 41% 30.49 in 10.0 mi Calm Calm - N/A   Clear
2:15 PM 32.0 °F - 12.2 °F 44% 30.48 in 10.0 mi Calm Calm - N/A   Clear
2:35 PM 32.0 °F - 12.2 °F 44% 30.47 in 10.0 mi Calm Calm - N/A   Clear
2:55 PM 32.0 °F - 8.6 °F 38% 30.47 in 10.0 mi Calm Calm - N/A   Clear
3:15 PM 32.0 °F - 8.6 °F 38% 30.46 in 10.0 mi Calm Calm - N/A   Clear
3:35 PM 32.0 °F - 10.4 °F 41% 30.46 in 10.0 mi Calm Calm - N/A   Clear
3:55 PM 32.0 °F - 10.4 °F 41% 30.46 in 10.0 mi Calm Calm - N/A   Clear
4:15 PM 32.0 °F - 14.0 °F 48% 30.46 in 10.0 mi Calm Calm - N/A   Clear
4:35 PM 32.0 °F - 14.0 °F 48% 30.46 in 10.0 mi Calm Calm - N/A   Clear
4:55 PM 30.2 °F - 14.0 °F 51% 30.46 in 10.0 mi Calm Calm - N/A   Clear
5:15 PM 26.6 °F - 12.2 °F 55% 30.46 in 10.0 mi Calm Calm - N/A   Clear
5:35 PM 21.2 °F - 10.4 °F 63% 30.47 in 10.0 mi Calm Calm - N/A   Clear
5:55 PM 19.4 °F - 12.2 °F 74% 30.46 in 10.0 mi Calm Calm - N/A Thunderstorm Clear
6:15 PM 17.6 °F - 10.4 °F 73% 30.47 in 10.0 mi Calm Calm - N/A   Clear
6:35 PM 17.6 °F - 8.6 °F 68% 30.47 in 10.0 mi Calm Calm - N/A   Clear
6:55 PM 15.8 °F - 8.6 °F 73% 30.48 in 10.0 mi Calm Calm - N/A   Clear
7:15 PM 14.0 °F - 8.6 °F 79% 30.48 in 10.0 mi Calm Calm - N/A   Clear
7:35 PM 12.2 °F - 6.8 °F 79% 30.47 in 10.0 mi Calm Calm - N/A   Clear
7:55 PM 17.6 °F - 8.6 °F 68% 30.47 in 10.0 mi Calm Calm - N/A Thunderstorm Thunderstorm
8:15 PM 12.2 °F - 5.0 °F 73% 30.47 in 10.0 mi Calm Calm - N/A   Clear
8:35 PM 12.2 °F - 5.0 °F 73% 30.47 in 10.0 mi Calm Calm - N/A   Clear
8:55 PM 14.0 °F - 8.6 °F 79% 30.47 in 10.0 mi Calm Calm - N/A   Clear
9:15 PM 12.2 °F 6.1 °F 5.0 °F 73% 30.47 in 10.0 mi ESE 3.5 mph - N/A   Clear
9:35 PM 12.2 °F - 5.0 °F 73% 30.47 in 10.0 mi Calm Calm - N/A   Clear
9:55 PM 12.2 °F - 5.0 °F 73% 30.48 in 10.0 mi Calm Calm - N/A   Clear
10:15 PM 10.4 °F - 3.2 °F 73% 30.47 in 10.0 mi Calm Calm - N/A   Clear
10:35 PM 10.4 °F - 6.8 °F 85% 30.48 in 10.0 mi Calm Calm - N/A   Clear
10:55 PM 8.6 °F - 3.2 °F 79% 30.47 in 10.0 mi Calm Calm - N/A   Clear
11:15 PM 10.4 °F - 5.0 °F 79% 30.47 in 10.0 mi Calm Calm - N/A   Clear
11:35 PM 8.6 °F 2.0 °F 5.0 °F 85% 30.47 in 10.0 mi ESE 3.5 mph - N/A   Clear
11:55 PM 10.4 °F - 5.0 °F 79% 30.47 in 10.0 mi Calm Calm - N/A   Clear